x

Yucatan Basin - 120 Nm Ese Of Cozumel, Mx (42056) Wave Buoy

4:50am - Sun 2nd Aug 2015 All times are CDT. -5 hours from GMT.

  • Sig Wave height 2.3ft
  • Swell Direction
  • Peak Period 4s
  • Average Period 5s
  • Wind
    9mph, 11mph gusts
  • Sea Temp 84°f
  • Air Temp 84°f
  • Sea Pressure 1012.6mb
  •  Yucatan Basin - 120 Nm Ese Of Cozumel, Mx
  •  Yucatan Basin - 120 Nm Ese Of Cozumel, Mx

More Historic Weather Station data

Upgrade to MSW Pro to gain access to the past 30 days of data for over 8000 Wavebouys and Weather Stations around the globe.

Join Pro

Comparision Forecast

View Surf forecast
   
Sun 08/02 4:50am 2.5ft 4s 5s 9 11 mph 1012.6mb 84f 84f
3:50am 2.5ft 8s 4s 9
mph
1012.5mb 84f 84f
2:50am 2.5ft 8s 5s 11 13 mph 1012.9mb 85f 84f
1:50am 2ft 8s 4s 11 13 mph 1013.5mb 85f 84f
12:50am 2ft 8s 4s 11 13 mph 1014mb 85f 84f
Sat 08/01 11:50pm 2ft 8s 4s 11 13 mph 1014.4mb 85f 85f
10:50pm 2ft 8s 4s 9 11 mph 1014.7mb 85f 85f
9:50pm 1.6ft 7s 4s 9 11 mph 1014.5mb 85f 85f
8:50pm 1.6ft 8s 4s 9 11 mph 1014.1mb 85f 85f
7:50pm 1.3ft 8s 5s 11 13 mph 1013.4mb 85f 84f
6:50pm 1.6ft 8s 5s 7 9 mph 1012.8mb 85f 85f
5:50pm 1.6ft 8s 5s 7 9 mph 1013mb 85f 85f
4:50pm 1.6ft 8s 5s 7 9 mph 1013.4mb 85f 85f
3:50pm 1.6ft 8s 5s 9
mph
1013.4mb 85f 85f
2:50pm 1.6ft 8s 5s 9
mph
1013.8mb 85f 85f
1:50pm 1.6ft 8s 5s 7 9 mph 1014.4mb 85f 84f
12:50pm 1.6ft 8s 4s 9 11 mph 1014.6mb 85f 84f
11:50am 1.6ft 8s 5s 9 11 mph 1015mb 85f 84f
10:50am 2ft 8s 5s 9 11 mph 1014.9mb 85f 84f
9:50am 2ft 8s 5s 9
mph
1014.8mb 84f 84f
8:50am 1.6ft 7s 4s 11
mph
1014.6mb 84f 84f
7:50am 1.6ft 8s 5s 9 11 mph 1014.3mb 84f 84f
6:50am 1.6ft 8s 4s 9 11 mph 1014.3mb 84f 83f
5:50am 2ft 8s 4s 7 9 mph 1014.1mb 84f 83f
4:50am 2ft 8s 4s 2 4 mph 1013.8mb 84f 83f
3:50am 2.5ft 4s 4s 2
mph
1013.7mb 84f 82f
2:50am 2ft 8s 4s 7 9 mph 1014.2mb 84f 82f
1:50am 2.5ft 8s 4s 9 11 mph 1015.1mb 84f 81f
12:50am 2ft 9s 4s 22 29 mph 1015.5mb 84f 79f
Fri 07/31 11:50pm 2ft 8s 5s 11
mph
1015.9mb 84f 85f
10:50pm 2ft 8s 4s 11
mph
1016mb 85f 85f
9:50pm 2ft 9s 4s 11 13 mph 1015.5mb 85f 85f
8:50pm 2ft 8s 4s 11 13 mph 1015.2mb 85f 85f
7:50pm 2ft 8s 5s 11
mph
1014.9mb 85f 85f
6:50pm 2ft 8s 5s 11 13 mph 1014.3mb 85f 85f
5:50pm 2ft 8s 5s 11
mph
1014mb 85f 85f
4:50pm 2ft 8s 5s 11 13 mph 1014mb 86f 85f
3:50pm 2.5ft 8s 6s 9 11 mph 1014.4mb 86f 85f
2:50pm 2.5ft 9s 6s 7 9 mph 1015.2mb 86f 84f
1:50pm 2.5ft 7s 5s 7 9 mph 1015.9mb 86f 84f
12:50pm 2.5ft 8s 5s 7 11 mph 1016.1mb 85f 84f
11:50am 2.5ft 9s 6s 9 11 mph 1016.2mb 85f 84f
10:50am 2.5ft 7s 5s 4 7 mph 1016.5mb 85f 84f
9:50am 2.5ft 9s 5s 4 7 mph 1016.4mb 85f 84f
8:50am 2.5ft 9s 5s 7
mph
1016.3mb 84f 84f
7:50am 2.5ft 9s 6s 2 4 mph 1015.8mb 84f 84f
6:50am 2.5ft 9s 6s 4 7 mph 1015.5mb 84f 83f
5:50am 2.5ft 7s 5s 4
mph
1015.1mb 84f 83f
4:50am 2.5ft 8s 5s 7 9 mph 1014.8mb 84f 83f
3:50am 3ft 9s 6s 7 9 mph 1014.7mb 85f 84f
2:50am 2.5ft 9s 5s 7 9 mph 1015mb 84f 84f
1:50am 2.5ft 8s 5s 9
mph
1015.6mb 85f 84f
12:50am 2.5ft 9s 5s 7 9 mph 1016.4mb 85f 84f
Thu 07/30 11:50pm 2.5ft 8s 5s 9
mph
1017mb 85f 84f
10:50pm 2.5ft 9s 5s 7 9 mph 1017.3mb 85f 85f
9:50pm 3ft 9s 5s 7 9 mph 1017.1mb 85f 85f
8:50pm 3ft 9s 5s 7 9 mph 1016.6mb 85f 85f
7:50pm 3ft 9s 5s 7 9 mph 1016mb 85f 85f
6:50pm 3ft 9s 5s 4 7 mph 1015.3mb 85f 84f
5:50pm 3ft 8s 5s 9 11 mph 1014.8mb 85f 85f
4:50pm 3ft 5s 5s 7 11 mph 1014.9mb 85f 85f
3:50pm 3ft 6s 5s 7 9 mph 1015.5mb 85f 85f
2:50pm 2.5ft 6s 5s 7 9 mph 1015.7mb 85f 85f
1:50pm 3ft 8s 5s 7 9 mph 1016.2mb 85f 85f
12:50pm 2.5ft 4s 5s 7 9 mph 1016.5mb 85f 84f
11:50am 2.5ft 9s 5s 9
mph
1017.1mb 85f 85f
10:50am 2.5ft 4s 5s 9 11 mph 1017.2mb 85f 85f
9:50am 2.5ft 9s 5s 7 9 mph 1016.9mb 84f 84f
8:50am 2.5ft 8s 5s 11 13 mph 1016.2mb 84f 84f
7:50am 2.5ft 8s 5s 9 11 mph 1015.8mb 84f 84f
6:50am 2.5ft 9s 5s 11 13 mph 1015.4mb 84f 84f
5:50am 2.5ft 8s 6s 9 11 mph 1014.8mb 84f 84f
4:50am 2.5ft 7s 5s 7 11 mph 1014.9mb 84f 83f
3:50am 2.5ft 6s 5s 7
mph
1014.7mb 84f 83f
2:50am 2.5ft 9s 5s 4 7 mph 1014.8mb 84f 83f
1:50am 3ft 8s 5s 4 7 mph 1015.3mb 84f 83f
12:50am 2.5ft 8s 5s 4 7 mph 1015.9mb 84f 84f
Wed 07/29 11:50pm 3ft 9s 5s 4 7 mph 1016.4mb 84f 84f
10:50pm 3.5ft 5s 5s 4 7 mph 1016.3mb 84f 84f
9:50pm 3.5ft 5s 5s 4
mph
1016mb 84f 83f
8:50pm 3.5ft 9s 5s 4
mph
1015.8mb 84f 83f
7:50pm 3.5ft 9s 5s 2 4 mph 1015.6mb 84f 83f
6:50pm 3.5ft 10s 5s 7 9 mph 1015mb 84f 83f
5:50pm 3.5ft 9s 5s 13 18 mph 1014.5mb 84f 83f
4:50pm 3.5ft 8s 5s 9 11 mph 1014.9mb 84f 82f
3:50pm 3.5ft 10s 5s 16 22 mph 1015mb 84f 82f
2:50pm 3.5ft 8s 5s 9 11 mph 1015.4mb 84f 80f
1:50pm 3.5ft 8s 5s 18 25 mph 1016.1mb 85f 78f
12:50pm 4ft 7s 5s 13 16 mph 1015.8mb 85f 85f
11:50am 4ft 9s 5s 13 18 mph 1015.9mb 85f 85f